TimeCST,TemperatureF,Dew PointF,Humidity,Sea Level PressureIn,VisibilityMPH,Wind Direction,Wind SpeedMPH,Gust SpeedMPH,PrecipitationIn,Events,Conditions,WindDirDegrees,DateUTC
12:15 AM,42.8,35.6,76,30.30,10.0,Calm,Calm,-,N/A,,Clear,0,2012-11-18 06:15:00
12:35 AM,39.2,35.6,87,30.30,10.0,Calm,Calm,-,N/A,,Clear,0,2012-11-18 06:35:00
12:55 AM,41.0,35.6,81,30.30,10.0,Calm,Calm,-,N/A,,Clear,0,2012-11-18 06:55:00
1:15 AM,41.0,35.6,81,30.30,10.0,Calm,Calm,-,N/A,,Clear,0,2012-11-18 07:15:00
1:35 AM,41.0,33.8,76,30.31,10.0,Calm,Calm,-,N/A,,Clear,0,2012-11-18 07:35:00
1:55 AM,41.0,35.6,81,30.30,10.0,Calm,Calm,-,N/A,,Clear,0,2012-11-18 07:55:00
2:15 AM,39.2,35.6,87,30.29,10.0,Calm,Calm,-,N/A,,Clear,0,2012-11-18 08:15:00
2:35 AM,39.2,35.6,87,30.29,10.0,Calm,Calm,-,N/A,,Clear,0,2012-11-18 08:35:00
2:55 AM,37.4,35.6,93,30.29,10.0,Calm,Calm,-,N/A,,Clear,0,2012-11-18 08:55:00
3:15 AM,39.2,35.6,87,30.29,10.0,Calm,Calm,-,N/A,,Clear,0,2012-11-18 09:15:00
3:35 AM,37.4,35.6,93,30.29,10.0,Calm,Calm,-,N/A,,Clear,0,2012-11-18 09:35:00
3:55 AM,37.4,35.6,93,30.29,10.0,NNW,4.6,-,N/A,,Clear,340,2012-11-18 09:55:00
4:15 AM,37.4,35.6,93,30.29,10.0,North,3.5,-,N/A,,Clear,360,2012-11-18 10:15:00
4:35 AM,37.4,35.6,93,30.28,10.0,NNE,6.9,-,N/A,,Clear,30,2012-11-18 10:35:00
4:55 AM,39.2,37.4,93,30.27,10.0,Calm,Calm,-,N/A,,Clear,0,2012-11-18 10:55:00
5:15 AM,39.2,35.6,87,30.27,10.0,Calm,Calm,-,N/A,,Clear,0,2012-11-18 11:15:00
5:35 AM,41.0,35.6,81,30.28,10.0,Calm,Calm,-,N/A,,Clear,0,2012-11-18 11:35:00
5:55 AM,39.2,37.4,93,30.28,10.0,NNE,4.6,-,N/A,,Clear,30,2012-11-18 11:55:00
6:15 AM,41.0,37.4,87,30.29,10.0,North,5.8,-,N/A,,Clear,10,2012-11-18 12:15:00
6:35 AM,39.2,37.4,93,30.29,10.0,NE,3.5,-,N/A,,Clear,40,2012-11-18 12:35:00
6:55 AM,41.0,37.4,87,30.29,10.0,NE,3.5,-,N/A,,Clear,40,2012-11-18 12:55:00
7:15 AM,42.8,39.2,87,30.29,10.0,NE,4.6,-,N/A,,Clear,40,2012-11-18 13:15:00
7:35 AM,44.6,41.0,87,30.30,10.0,NE,4.6,-,N/A,,Clear,40,2012-11-18 13:35:00
7:55 AM,46.4,42.8,87,30.31,10.0,NE,4.6,-,N/A,,Clear,40,2012-11-18 13:55:00
8:15 AM,51.8,42.8,71,30.30,10.0,ENE,5.8,-,N/A,,Clear,60,2012-11-18 14:15:00
8:35 AM,53.6,42.8,67,30.31,10.0,ENE,6.9,-,N/A,,Clear,60,2012-11-18 14:35:00
8:55 AM,57.2,44.6,63,30.32,10.0,ENE,5.8,-,N/A,,Clear,70,2012-11-18 14:55:00
9:15 AM,60.8,46.4,59,30.32,10.0,East,6.9,-,N/A,,Clear,80,2012-11-18 15:15:00
9:35 AM,62.6,46.4,55,30.32,10.0,ENE,8.1,-,N/A,,Clear,70,2012-11-18 15:35:00
9:55 AM,64.4,46.4,52,30.32,10.0,ENE,6.9,-,N/A,,Clear,70,2012-11-18 15:55:00
10:15 AM,64.4,48.2,56,30.32,10.0,East,9.2,-,N/A,,Clear,90,2012-11-18 16:15:00
10:35 AM,68.0,50.0,52,30.32,10.0,East,8.1,-,N/A,,Clear,100,2012-11-18 16:35:00
10:55 AM,68.0,50.0,52,30.31,10.0,ENE,9.2,-,N/A,,Clear,70,2012-11-18 16:55:00
11:15 AM,69.8,50.0,49,30.29,10.0,East,8.1,-,N/A,,Clear,80,2012-11-18 17:15:00
11:35 AM,69.8,50.0,49,30.28,10.0,ESE,9.2,-,N/A,,Clear,120,2012-11-18 17:35:00
11:55 AM,71.6,50.0,46,30.28,10.0,ESE,3.5,-,N/A,,Clear,110,2012-11-18 17:55:00
12:15 PM,71.6,50.0,46,30.27,10.0,SE,6.9,-,N/A,,Clear,140,2012-11-18 18:15:00
12:35 PM,71.6,46.4,41,30.26,10.0,SSE,4.6,-,N/A,,Clear,150,2012-11-18 18:35:00
12:55 PM,73.4,46.4,38,30.25,10.0,SSE,5.8,-,N/A,,Clear,160,2012-11-18 18:55:00
1:15 PM,71.6,46.4,41,30.24,10.0,Calm,Calm,-,N/A,,Clear,0,2012-11-18 19:15:00
1:35 PM,73.4,44.6,36,30.24,10.0,Calm,Calm,-,N/A,,Clear,0,2012-11-18 19:35:00
1:55 PM,73.4,42.8,33,30.22,10.0,ESE,6.9,-,N/A,,Clear,120,2012-11-18 19:55:00
2:15 PM,73.4,42.8,33,30.21,10.0,SE,4.6,-,N/A,,Clear,130,2012-11-18 20:15:00
2:35 PM,73.4,41.0,31,30.21,10.0,SSE,3.5,-,N/A,,Clear,150,2012-11-18 20:35:00
2:55 PM,73.4,42.8,33,30.21,10.0,SSE,5.8,-,N/A,,Clear,160,2012-11-18 20:55:00
3:15 PM,73.4,42.8,33,30.21,10.0,East,6.9,-,N/A,,Clear,90,2012-11-18 21:15:00
3:35 PM,73.4,41.0,31,30.21,10.0,SE,3.5,-,N/A,,Clear,130,2012-11-18 21:35:00
3:55 PM,73.4,41.0,31,30.21,10.0,SE,3.5,-,N/A,,Clear,140,2012-11-18 21:55:00
4:15 PM,73.4,41.0,31,30.21,10.0,East,3.5,-,N/A,,Clear,100,2012-11-18 22:15:00
4:35 PM,71.6,42.8,35,30.22,10.0,East,4.6,-,N/A,,Clear,100,2012-11-18 22:35:00
4:55 PM,69.8,42.8,38,30.22,10.0,East,5.8,-,N/A,,Clear,100,2012-11-18 22:55:00
5:15 PM,68.0,44.6,43,30.21,10.0,ESE,8.1,-,N/A,,Clear,120,2012-11-18 23:15:00
5:35 PM,64.4,44.6,49,30.22,10.0,SE,8.1,-,N/A,,Clear,130,2012-11-18 23:35:00
5:55 PM,60.8,46.4,59,30.22,10.0,SE,5.8,-,N/A,,Clear,130,2012-11-18 23:55:00
6:15 PM,60.8,44.6,55,30.23,10.0,ESE,5.8,-,N/A,,Clear,120,2012-11-19 00:15:00
6:35 PM,59.0,46.4,63,30.24,10.0,SE,4.6,-,N/A,,Clear,130,2012-11-19 00:35:00
6:55 PM,57.2,46.4,67,30.24,10.0,SE,4.6,-,N/A,,Clear,130,2012-11-19 00:55:00
7:15 PM,55.4,44.6,67,30.25,10.0,ESE,4.6,-,N/A,,Clear,120,2012-11-19 01:15:00
7:35 PM,55.4,46.4,72,30.26,10.0,ESE,3.5,-,N/A,,Clear,120,2012-11-19 01:35:00
7:55 PM,55.4,46.4,72,30.27,10.0,ESE,5.8,-,N/A,,Clear,110,2012-11-19 01:55:00
8:15 PM,55.4,46.4,72,30.27,10.0,East,5.8,-,N/A,,Clear,100,2012-11-19 02:15:00
8:35 PM,55.4,48.2,77,30.27,10.0,ESE,4.6,-,N/A,,Clear,110,2012-11-19 02:35:00
8:55 PM,53.6,46.4,77,30.27,10.0,SE,3.5,-,N/A,,Clear,130,2012-11-19 02:55:00
9:15 PM,53.6,44.6,72,30.28,10.0,SE,3.5,-,N/A,,Clear,130,2012-11-19 03:15:00
9:35 PM,53.6,48.2,82,30.28,10.0,ESE,3.5,-,N/A,,Clear,110,2012-11-19 03:35:00
9:55 PM,53.6,48.2,82,30.28,10.0,ESE,3.5,-,N/A,,Clear,110,2012-11-19 03:55:00
10:35 PM,51.8,48.2,88,30.27,10.0,East,3.5,-,N/A,,Clear,90,2012-11-19 04:35:00
11:15 PM,51.8,48.2,88,30.26,10.0,East,5.8,-,N/A,,Clear,100,2012-11-19 05:15:00
11:35 PM,50.0,48.2,94,30.25,10.0,East,5.8,-,N/A,,Clear,90,2012-11-19 05:35:00
11:55 PM,51.8,48.2,88,30.26,10.0,East,4.6,-,N/A,,Clear,100,2012-11-19 05:55:00